Location: Gleizolles
(44.4833°N, 6.7667°E)
Time: 15:35:29
(UTC+00:00)

Transit 2A - Pass Details

Date: 27 June 2024
Orbit: 591 x 960 km, 66.7° (Epoch: 16 July)

Event Time Altitude Azimuth Distance (km) Brightness Sun altitude
Rises 21:04:54 0° 331° (NNW) 3,522 11.4 -13.9°
Reaches altitude 10° 21:07:33 10° 339° (NNW) 2,620 10.1 -14.2°
Maximum altitude 21:13:19 40° 48° (NE) 1,373 7.3 -14.8°
Enters shadow 21:18:08 15° 112° (ESE) 2,332 8.0 -15.3°
